Temp
0 -0 -0 -1 -1 -1 -0 -0 -0 0 -0 -1 -1 -1 -1 -1 -1 0 2 2 2 2 2 2 3 3 3 3 3 4 3 4 5 6 7 7 7 7 7 7 7 8 8 8 8
-1 -1 -2 -4 -6 -6 -5 -5 -4 -2 -1 -1 -2 -2 -2 -1 -1 0 1 1 1 2 2 2 3 2 3 3 3 3 4 5 6 6 6 6 6 6 7 7 7 7 8 8 8
-1 -2 -4 -5 -6 -7 -6 -7 -7 -6 -2 -2 -2 -2 -2 -2 -2 1 -1 1 1 1 1 2 1 2 2 2 2 3 4 5 5 6 6 6 6 6 6 7 7 7 8 8 7
-4 -6 -7 -7 -7 -7 -7 -7 -7 -8 -7 -4 -3 -3 -2 -2 -2 -1 0 1 1 1 1 2 1 0 1 2 2 2 3 4 5 5 5 5 5 6 6 7 7 7 6 7 7
-6 -7 -7 -8 -7 -7 -7 -7 -8 -8 -7 -7 -4 -3 -3 -2 -2 -1 -1 0 1 1 1 1 1 -0 0 1 2 2 2 3 4 4 4 4 5 5 6 7 7 6 6 6 6
-8 -8 -8 -8 -7 -8 -8 -8 -8 -8 -7 -8 -6 -4 -3 -3 -2 -2 -1 -0 1 1 1 1 0 0 0 1 1 1 2 3 3 4 4 4 4 4 7 7 7 7 6 6 6
-8 -8 -8 -8 -8 -8 -8 -8 -8 -8 -8 -8 -7 -6 -3 -3 -3 -2 -1 -1 0 1 1 1 -0 -0 -0 0 1 0 1 2 3 3 3 3 4 5 7 6 7 7 6 5 5
-8 -8 -8 -8 -8 -8 -8 -8 -8 -8 -8 -8 -7 -6 -5 -4 -3 -2 -2 -1 -0 -0 0 0 -1 -1 -1 -0 0 0 -0 1 3 3 3 2 5 4 5 6 7 7 6 6 5
-8 -8 -8 -7 -7 -7 -7 -7 -8 -8 -8 -8 -7 -7 -5 -3 -3 -3 -2 -1 -1 -1 -1 -1 -1 -1 -2 -1 -1 -1 -0 0 1 3 2 3 3 3 4 5 6 6 7 6 6
-8 -9 -8 -7 -7 -7 -7 -7 -7 -8 -8 -8 -7 -7 -5 -4 -3 -3 -2 -1 -1 -1 -1 -1 -2 -1 -2 -2 -1 -1 -1 1 1 2 2 2 1 3 4 4 5 6 7 7 7
-9 -8 -7 -7 -7 -7 -7 -7 -8 -8 -8 -8 -7 -5 -5 -3 -3 -3 -2 -1 -1 -1 -1 -2 -1 -1 -1 -2 -1 -0 -0 0 1 1 1 1 1 3 4 5 5 5 6 7 7
-8 -7 -7 -8 -8 -7 -7 -7 -7 -8 -8 -7 -6 -4 -4 -3 -3 -3 -2 -2 -2 -2 -1 -1 -1 -1 -1 -1 -1 -1 -1 0 0 0 0 1 2 3 5 5 5 5 5 6 6
-8 -8 -8 -8 -8 -8 -8 -8 -8 -8 -8 -7 -5 -5 -4 -4 -4 -3 -3 -2 -2 -1 -1 -1 -1 -1 -1 -1 -1 -1 -1 0 -0 0 0 1 2 5 6 5 5 5 6 5 6
-8 -7 -7 -7 -8 -8 -8 -8 -8 -8 -7 -6 -5 -5 -4 -4 -4 -4 -3 -2 -2 -2 -2 -1 -1 -1 -1 -1 -1 -1 -1 -1 -0 -1 -1 0 -1 5 5 5 5 5 5 5 5
-7 -7 -7 -7 -7 -7 -8 -8 -8 -7 -9 -6 -5 -4 -4 -4 -4 -3 -3 -3 -2 -2 -1 -2 -1 -1 -1 -2 -1 -1 -1 -1 -1 -1 -1 -0 -0 4 5 4 4 4 4 4 4
-7 -7 -7 -7 -7 -8 -8 -8 -8 -7 -6 -6 -4 -4 -4 -4 -4 -3 -3 -2 -2 -2 -2 -2 -2 -2 -2 -2 -2 -2 -2 -2 -1 -1 -4 -2 -0 4 3 3 3 3 3 3 4
-7 -7 -7 -7 -7 -7 -7 -7 -7 -7 -6 -5 -4 -4 -4 -4 -4 -3 -3 -3 -2 -3 -3 -3 -3 -3 -2 -2 -2 -2 -2 -3 -5 -6 -5 -2 -2 4 3 3 3 3 3 3 3
-6 -6 -6 -6 -6 -5 -6 -6 -6 -6 -6 -4 -4 -4 -3 -4 -4 -4 -3 -3 -3 -3 -2 -2 -3 -3 -3 -2 -2 -3 -2 -2 -4 -4 -5 -3 -3 2 2 2 3 3 3 3 2
-5 -6 -4 -4 -4 -5 -5 -5 -6 -5 -4 -4 -4 -4 -4 -4 -4 -4 -3 -2 -3 -2 -1 -2 -3 -3 -3 -3 -3 -3 -3 -3 -3 -5 -6 -2 1 2 3 3 2 1 1 2 2
-4 -4 -5 -4 -4 -4 -4 -4 -4 -4 -4 -4 -4 -4 -4 -4 -4 -4 -3 -3 -3 -2 -2 -2 -3 -3 -3 -4 -3 -3 -3 -3 -3 -8 -5 -3 -1 2 1 1 0 0 1 1 1
-4 -3 -4 -4 -4 -4 -5 -4 -4 -5 -4 -3 -3 -4 -4 -4 -4 -3 -3 -3 -3 -3 -2 -2 -3 -4 -4 -4 -3 -3 -3 -3 -3 -3 -7 -4 0 1 1 0 0 0 0 1 0
-3 -3 -3 -3 -3 -4 -5 -5 -5 -4 -3 -3 -3 -3 -3 -4 -3 -3 -3 -3 -3 -3 -3 -3 -3 -4 -4 -4 -4 -4 -4 -3 -2 -5 -4 -5 -1 1 1 -0 -1 -1 -1 -1 -1
-3 -3 -3 -3 -5 -5 -5 -4 -4 -3 -2 -2 -3 -3 -3 -3 -3 -3 -3 -3 -4 -3 -3 -3 -3 -4 -5 -4 -4 -4 -4 -4 -3 -4 -4 -5 -0 1 0 -1 -1 -1 -1 -1 -1
-2 -3 -3 -4 -4 -4 -5 -4 -3 -3 -3 -3 -3 -3 -3 -3 -3 -3 -3 -3 -3 -3 -3 -3 -3 -3 -4 -3 -3 -4 -3 -3 -4 -4 -4 -2 1 1 -0 -1 -1 -1 -1 -2 -2
-2 -2 -2 -3 -4 -5 -4 -4 -4 -4 -4 -4 -3 -3 -3 -3 -3 -3 -3 -3 -4 -4 -4 -4 -4 -3 -3 -3 -4 -3 -3 -3 -4 -4 -3 -0 -1 0 -1 -1 -1 -2 -1 -2 -2
-3 -3 -3 -3 -4 -4 -4 -4 -4 -4 -4 -4 -4 -4 -4 -3 -3 -3 -3 -4 -4 -4 -4 -4 -4 -4 -3 -3 -3 -3 -3 -3 -3 -3 -3 -1 -0 -1 -1 -1 -2 -2 -1 -2 -2
-3 -3 -3 -3 -4 -3 -3 -4 -4 -3 -4 -4 -4 -4 -4 -3 -3 -4 -4 -4 -4 -4 -4 -4 -4 -4 -4 -4 -3 -2 -1 -1 -1 -1 -1 -2 -0 -2 -1 -1 -2 -2 -2 -2 -2
Height
3054 3049 3043 3039 3035 3033 3030 3030 3031 3032 3033 3036 3040 3044 3043 3045 3046 3048 3050 3059 3063 3066 3069 3074 3079 3084 3088 3093 3096 3101 3104 3103 3108 3114 3119 3120 3124 3127 3128 3132 3134 3136 3139 3142 3144
3047 3041 3034 3029 3026 3023 3021 3018 3017 3019 3021 3025 3030 3035 3038 3039 3038 3039 3050 3053 3057 3060 3063 3068 3072 3078 3083 3088 3092 3095 3095 3098 3108 3112 3115 3116 3119 3123 3125 3128 3131 3133 3135 3138 3141
3035 3029 3024 3020 3017 3015 3013 3011 3009 3008 3010 3014 3020 3025 3032 3031 3031 3032 3042 3046 3050 3054 3059 3065 3071 3075 3079 3084 3086 3089 3090 3097 3103 3108 3111 3111 3114 3118 3121 3124 3128 3130 3131 3134 3137
3025 3020 3016 3012 3010 3008 3006 3003 3001 3000 3001 3003 3010 3016 3023 3024 3029 3030 3035 3040 3045 3050 3055 3059 3064 3068 3073 3077 3082 3085 3088 3093 3102 3105 3106 3107 3109 3112 3116 3122 3124 3126 3126 3129 3132
3017 3013 3010 3006 3004 3001 2998 2995 2994 2993 2994 2994 2999 3007 3015 3018 3021 3027 3029 3036 3040 3045 3049 3055 3059 3063 3068 3073 3079 3081 3085 3090 3096 3099 3101 3102 3104 3107 3111 3116 3118 3121 3123 3124 3127
3011 3007 3004 3001 2998 2995 2992 2990 2988 2988 2988 2988 2992 2998 3005 3010 3015 3020 3026 3031 3036 3041 3046 3052 3055 3062 3068 3072 3076 3079 3083 3088 3092 3094 3096 3097 3099 3101 3106 3110 3113 3116 3119 3121 3122
3005 3002 2998 2995 2992 2990 2988 2986 2984 2983 2982 2983 2987 2991 2997 3005 3010 3015 3021 3028 3034 3039 3043 3050 3055 3061 3066 3069 3073 3077 3081 3084 3086 3089 3091 3093 3092 3092 3101 3103 3106 3111 3114 3116 3118
3001 2997 2993 2990 2988 2986 2984 2983 2981 2980 2978 2979 2982 2988 2992 3001 3008 3012 3018 3025 3029 3036 3043 3050 3055 3060 3064 3067 3070 3074 3079 3080 3082 3084 3087 3090 3083 3089 3093 3096 3100 3103 3105 3108 3112
2997 2992 2989 2985 2984 2982 2981 2979 2978 2975 2975 2976 2979 2984 2991 2997 3005 3011 3017 3023 3028 3034 3041 3048 3053 3057 3062 3064 3069 3070 3071 3075 3080 3081 3083 3084 3079 3085 3088 3090 3092 3095 3099 3100 3102
2992 2988 2984 2982 2980 2979 2977 2976 2974 2971 2973 2974 2976 2987 2988 2995 3002 3009 3015 3021 3026 3033 3039 3043 3049 3053 3057 3059 3061 3066 3070 3073 3075 3079 3078 3078 3074 3079 3083 3085 3086 3088 3091 3093 3095
2988 2984 2981 2979 2977 2975 2974 2974 2974 2972 2970 2972 2975 2982 2988 2995 3000 3007 3015 3020 3025 3031 3035 3039 3044 3045 3049 3057 3062 3067 3068 3071 3074 3076 3075 3074 3073 3075 3080 3080 3080 3082 3085 3087 3089
2984 2980 2977 2975 2973 2971 2970 2970 2969 2969 2969 2970 2975 2981 2986 2992 2998 3007 3014 3021 3023 3027 3032 3037 3039 3046 3051 3057 3062 3065 3067 3070 3073 3073 3072 3071 3068 3071 3075 3074 3076 3078 3079 3080 3080
2980 2977 2973 2969 2967 2967 2967 2967 2966 2967 2968 2973 2977 2980 2988 2994 3000 3006 3013 3019 3024 3024 3029 3032 3036 3043 3048 3053 3059 3062 3066 3070 3072 3071 3071 3068 3064 3067 3070 3069 3071 3070 3071 3072 3072
2978 2973 2968 2963 2962 2963 2965 2966 2966 2968 2972 2977 2981 2986 2989 2992 3002 3010 3016 3023 3025 3029 3031 3033 3038 3042 3047 3051 3056 3061 3065 3068 3068 3069 3070 3071 3067 3063 3065 3064 3063 3064 3066 3067 3068
2977 2971 2966 2961 2961 2962 2966 2965 2968 2971 2977 2982 2983 2985 2990 2995 3004 3010 3018 3023 3025 3028 3034 3037 3040 3044 3048 3051 3055 3061 3064 3066 3066 3068 3069 3068 3070 3059 3061 3061 3061 3061 3062 3063 3064
2978 2973 2967 2964 2962 2964 2965 2968 2971 2975 2978 2983 2985 2988 2993 2999 3006 3011 3019 3023 3026 3029 3034 3038 3042 3047 3049 3052 3055 3060 3063 3064 3065 3066 3068 3064 3066 3057 3057 3057 3058 3060 3061 3062 3062
2981 2978 2974 2972 2970 2970 2972 2975 2976 2975 2983 2987 2988 2993 2998 3003 3009 3015 3019 3022 3027 3032 3037 3041 3044 3047 3050 3054 3056 3059 3061 3064 3067 3068 3067 3064 3064 3055 3056 3056 3057 3059 3059 3059 3058
2987 2983 2982 2981 2979 2978 2978 2979 2978 2981 2982 2987 2992 2998 3001 3007 3014 3018 3021 3025 3030 3033 3036 3041 3048 3048 3049 3051 3053 3056 3060 3060 3064 3065 3064 3062 3056 3052 3054 3054 3056 3057 3057 3055 3054
2992 2992 2990 2988 2986 2983 2981 2980 2984 2984 2989 2992 2999 3003 3007 3011 3015 3019 3024 3028 3031 3034 3037 3040 3044 3046 3047 3050 3054 3054 3057 3059 3060 3062 3064 3057 3052 3052 3052 3054 3055 3055 3053 3052 3052
2999 2997 2993 2989 2988 2986 2982 2986 2989 2990 2995 3001 3002 3007 3010 3013 3018 3021 3026 3030 3032 3034 3036 3039 3043 3045 3047 3050 3051 3053 3056 3057 3058 3065 3064 3054 3050 3049 3051 3053 3054 3052 3051 3049 3047
3004 3001 2996 2992 2991 2992 2990 2992 2996 3000 3002 3005 3005 3007 3011 3014 3019 3022 3027 3029 3032 3035 3037 3039 3042 3047 3047 3049 3049 3052 3052 3054 3057 3058 3061 3059 3050 3049 3051 3053 3051 3048 3045 3042 3039
3009 3006 3003 2999 2998 2996 2999 3000 3002 3006 3007 3007 3009 3011 3013 3017 3020 3023 3027 3029 3032 3035 3038 3040 3041 3045 3047 3049 3047 3049 3052 3053 3055 3058 3059 3058 3050 3048 3050 3050 3047 3044 3041 3036 3032
3014 3010 3008 3004 3002 3003 3005 3005 3007 3009 3010 3010 3011 3014 3016 3019 3023 3025 3027 3030 3032 3035 3038 3040 3042 3044 3047 3047 3046 3047 3048 3051 3053 3055 3056 3056 3048 3048 3048 3046 3043 3038 3034 3030 3025
3017 3015 3013 3010 3008 3008 3009 3009 3010 3010 3011 3012 3013 3015 3017 3020 3022 3023 3026 3029 3031 3034 3037 3039 3040 3041 3042 3042 3042 3043 3044 3047 3050 3053 3052 3046 3045 3046 3044 3040 3036 3032 3028 3023 3017
3019 3017 3015 3014 3013 3012 3012 3012 3011 3011 3012 3013 3014 3016 3018 3020 3022 3023 3025 3028 3030 3032 3035 3038 3039 3040 3040 3040 3040 3041 3042 3043 3044 3047 3047 3043 3042 3041 3039 3035 3031 3027 3022 3019 3016
3020 3019 3017 3016 3015 3015 3014 3014 3013 3012 3013 3013 3015 3017 3019 3021 3022 3023 3025 3027 3030 3032 3034 3036 3038 3038 3037 3037 3037 3037 3038 3040 3042 3043 3041 3041 3038 3039 3036 3032 3028 3024 3019 3016 3013
3020 3019 3019 3018 3018 3018 3017 3017 3017 3016 3017 3017 3018 3019 3020 3021 3022 3022 3026 3028 3030 3031 3033 3036 3037 3037 3036 3036 3036 3034 3031 3034 3036 3037 3039 3037 3036 3034 3032 3028 3025 3020 3016 3013 3009
Wind_Speed
42 44 45 43 43 42 41 41 40 39 37 35 35 26 19 24 28 30 34 26 24 26 28 31 33 33 34 34 33 33 34 38 39 35 32 29 25 24 25 24 22 21 19 17 16
43 44 45 44 35 35 37 39 38 40 40 35 35 39 25 22 30 33 26 23 24 28 29 33 35 35 36 35 35 35 40 40 34 31 30 32 30 20 23 24 22 19 22 22 19
46 40 36 31 27 28 33 35 35 30 38 36 34 41 33 14 30 31 22 25 27 30 29 29 30 32 36 36 38 40 42 38 33 29 30 34 27 26 25 24 21 17 23 24 21
34 30 25 25 25 27 31 33 36 35 30 34 30 40 39 24 21 11 22 26 28 30 27 30 34 35 36 38 39 38 40 35 31 31 33 34 30 30 27 27 25 23 21 23 22
29 24 25 26 25 27 27 27 28 27 26 30 27 39 36 36 31 8 7 24 29 30 30 31 33 34 36 37 37 39 37 35 32 33 36 34 33 31 30 27 31 30 26 23 24
26 24 24 25 24 23 23 22 19 19 20 24 24 39 27 40 29 26 15 18 28 30 30 32 29 33 30 31 35 30 37 33 32 35 36 36 36 35 33 31 34 35 30 26 27
23 22 23 22 21 18 15 13 14 13 17 17 19 40 32 34 19 25 23 15 26 26 29 30 27 26 24 27 27 30 19 29 35 32 30 31 37 39 31 32 32 34 36 33 30
22 24 26 22 18 15 16 15 13 15 15 11 14 40 37 43 21 25 24 18 25 27 26 26 27 23 19 18 19 20 27 19 25 33 32 27 39 17 19 31 30 31 36 41 39
23 23 21 17 15 15 15 13 17 18 9 14 13 41 23 47 25 24 25 19 26 26 26 26 24 25 22 20 14 20 12 31 27 19 21 32 35 25 26 32 33 31 33 38 42
22 21 19 17 15 15 13 15 20 8 7 12 13 27 28 39 23 26 25 24 29 28 27 28 28 27 29 23 19 17 17 14 23 23 24 27 35 34 29 28 28 28 29 32 37
22 18 18 17 16 16 14 17 19 6 8 9 16 19 29 33 26 27 29 24 28 30 30 29 34 34 32 26 12 13 14 17 14 19 20 24 30 32 28 29 30 29 26 25 25
22 18 18 21 15 14 15 16 16 4 8 16 27 13 24 26 32 27 32 25 24 33 33 27 35 30 28 25 20 11 14 12 11 14 19 25 33 31 27 29 28 28 26 24 27
22 23 23 22 17 12 13 11 6 1 10 21 35 20 21 25 35 31 30 29 21 19 29 16 11 20 27 28 25 18 16 13 13 14 19 25 31 21 19 18 16 20 21 22 25
24 24 23 24 11 4 8 6 1 5 11 13 21 19 26 26 31 25 26 21 21 19 11 11 11 13 17 18 22 19 15 15 13 10 5 8 8 19 15 12 16 18 13 14 14
25 22 19 14 9 5 0 4 7 15 4 13 16 20 16 22 31 26 27 16 19 25 16 8 10 10 10 5 8 7 9 9 8 8 10 11 5 7 6 8 8 8 8 10 13
26 21 19 17 13 11 9 13 14 3 4 6 10 21 22 12 35 30 23 18 16 13 9 9 11 9 10 11 11 5 7 5 9 8 2 4 9 4 6 13 11 8 6 7 8
24 22 26 24 22 21 17 12 2 5 10 16 21 30 22 28 28 29 20 19 9 16 14 11 15 9 10 14 14 14 9 2 2 1 3 2 6 8 7 9 8 6 7 11 15
28 25 28 27 20 14 9 5 8 8 9 18 32 26 24 26 25 23 19 22 11 9 18 10 6 14 10 11 9 14 11 5 4 1 3 5 8 3 8 12 7 9 15 16 16
27 20 24 17 15 13 12 16 9 10 15 31 27 27 24 21 20 16 20 17 14 12 6 8 4 13 9 11 11 10 9 9 3 1 1 4 6 8 7 6 5 10 12 15 18
21 19 18 17 15 19 27 29 28 27 34 26 16 15 16 13 20 15 18 18 13 11 14 8 6 10 10 10 11 7 8 5 5 2 2 5 7 4 5 2 7 13 18 21 25
14 19 17 14 15 24 25 28 32 28 16 10 10 21 16 16 18 18 14 11 14 14 10 10 5 9 10 11 14 13 10 4 5 2 3 2 2 4 6 5 17 24 26 28 26
16 15 16 17 16 23 25 22 23 15 14 10 9 21 20 20 18 15 15 4 20 15 10 11 5 7 9 7 8 13 12 10 3 4 4 2 4 4 2 18 20 25 23 21 25
12 13 11 12 17 20 20 19 16 13 10 7 9 10 13 18 8 19 15 15 16 17 10 10 3 6 5 7 10 13 17 17 13 4 7 3 2 6 11 22 24 26 23 26 31
8 7 13 13 18 15 14 12 10 7 6 5 9 9 15 13 4 19 13 13 10 21 13 7 5 3 5 0 3 9 14 17 18 8 8 20 16 16 17 23 23 23 25 29 28
5 5 7 6 10 11 9 4 6 5 4 6 9 8 14 9 6 10 11 11 11 18 20 12 3 7 10 8 7 5 7 12 22 24 14 14 21 15 21 24 23 26 27 26 23
8 7 3 3 7 8 8 9 6 5 4 7 13 13 11 7 7 6 13 11 10 12 13 13 6 5 6 9 13 17 16 15 15 19 25 21 21 15 19 19 22 23 23 20 21
8 6 4 3 7 6 6 5 11 13 13 12 11 9 6 4 3 9 11 8 4 7 14 9 7 4 2 4 7 12 9 15 21 20 17 22 13 16 16 16 20 21 19 19 15
Wind_Direction
309 308 304 300 293 286 278 269 261 255 255 243 227 214 237 253 251 240 233 233 230 222 216 212 210 211 213 214 212 213 216 225 231 236 240 250 246 241 238 227 227 231 230 241 244
307 303 297 296 295 295 292 285 279 260 252 246 229 216 223 241 254 245 235 229 220 220 213 213 209 208 212 211 212 211 220 227 232 238 243 249 250 238 232 227 229 233 231 237 243
308 304 302 302 302 286 286 284 279 276 257 251 231 217 210 239 248 251 237 220 214 217 212 211 209 212 213 213 213 215 223 226 229 234 239 247 248 240 230 223 225 231 230 232 240
311 310 312 302 297 292 288 289 279 277 272 251 234 212 211 240 237 264 228 217 212 211 207 208 205 208 212 214 215 218 224 226 227 231 238 244 248 245 240 229 227 231 232 235 238
312 309 303 301 303 301 297 292 286 285 279 264 225 209 212 223 226 202 215 211 210 208 205 205 207 208 212 214 218 224 228 228 229 231 239 244 247 250 242 237 234 231 232 235 237
312 307 304 309 310 307 302 302 300 290 275 268 224 201 217 222 235 209 217 199 211 208 200 203 207 210 215 217 221 230 232 234 234 237 241 247 251 252 243 235 236 234 233 233 235
316 317 311 312 311 312 312 308 302 288 282 275 222 193 212 212 226 197 201 205 206 203 202 201 207 209 213 217 222 223 236 234 236 238 245 251 253 250 250 248 239 240 239 235 234
317 309 309 306 302 304 309 314 307 302 280 239 235 190 212 209 209 191 193 206 196 189 197 201 200 202 213 207 217 219 227 230 236 239 242 247 254 246 249 254 247 238 241 241 240
318 313 320 305 298 300 301 315 320 305 261 235 217 194 211 200 203 183 181 196 182 179 185 192 194 201 204 201 195 206 224 227 238 245 240 241 257 264 258 257 257 249 239 242 244
316 314 316 315 307 299 306 313 328 297 215 232 213 195 203 207 217 172 174 182 175 174 184 184 187 196 199 188 196 194 207 223 232 241 242 246 253 257 257 262 261 257 255 248 248
321 322 324 322 315 296 292 319 330 291 224 210 190 180 200 197 191 172 173 175 176 180 183 194 188 199 201 190 197 211 213 220 231 235 255 254 266 262 263 262 263 267 265 264 260
324 320 320 309 313 305 295 313 319 294 195 171 171 149 194 188 166 169 178 180 175 188 194 181 197 201 205 196 199 201 204 221 239 249 264 268 271 269 267 270 269 271 271 264 255
327 321 310 299 296 290 291 314 310 227 168 163 176 189 179 186 169 169 176 185 184 190 198 206 160 183 201 191 198 204 215 223 244 261 272 285 292 285 270 276 274 262 257 256 256
342 334 325 322 301 303 291 303 241 141 135 154 157 183 161 162 160 167 169 179 183 185 190 204 209 212 170 186 193 204 228 235 256 280 279 293 295 282 285 262 258 252 242 250 246
355 356 349 349 332 319 360 136 130 121 81 145 139 187 177 137 156 164 161 168 186 177 173 153 175 203 215 211 195 198 199 222 260 280 288 275 244 284 274 267 235 217 223 246 260
16 18 23 29 50 75 96 117 141 67 89 122 150 140 163 129 164 160 164 164 167 190 173 139 151 173 180 168 174 198 212 254 276 275 263 242 212 286 136 159 171 174 197 235 248
36 39 47 51 61 69 88 117 21 57 97 148 147 140 135 151 161 165 161 169 158 143 152 142 161 162 182 185 196 216 219 290 345 78 218 153 215 219 190 183 191 219 277 282 272
53 54 60 53 65 79 74 37 56 63 110 134 139 136 119 150 154 168 162 162 165 162 152 160 165 191 190 195 192 189 199 203 193 137 276 218 237 220 194 224 254 288 292 283 275
56 52 65 65 52 34 50 46 33 82 115 133 134 134 136 148 159 174 168 180 169 177 180 155 123 180 187 209 192 191 206 203 110 110 339 243 272 270 254 252 295 324 294 288 288
57 42 35 39 48 70 82 78 83 104 120 140 120 157 165 123 164 160 173 189 182 186 194 168 131 188 197 199 200 206 179 165 193 104 272 267 279 220 138 64 326 296 288 284 283
49 37 30 49 71 104 96 105 116 129 130 134 139 155 164 151 170 164 166 188 184 198 203 189 172 166 191 212 210 197 197 169 160 166 165 293 262 157 154 345 310 303 302 303 298
32 52 72 74 92 107 118 112 121 115 134 102 136 171 170 174 171 173 182 224 199 203 197 177 168 155 190 217 217 225 236 214 200 185 214 220 284 170 143 332 316 310 323 314 303
35 62 68 71 84 98 117 123 124 142 133 97 142 159 173 180 176 193 201 207 197 195 187 194 167 134 193 236 232 221 222 217 219 171 225 179 233 181 317 323 308 312 313 309 306
32 69 63 64 91 89 105 144 146 163 178 156 150 155 155 166 179 195 196 206 226 201 197 210 221 217 189 240 199 206 220 223 221 206 231 238 267 300 320 312 319 316 323 326 329
2 336 328 77 79 78 84 122 160 153 162 163 174 186 192 182 185 189 197 197 173 193 214 217 249 252 252 268 270 266 241 233 231 234 238 277 294 328 321 320 324 323 325 321 311
339 342 7 85 92 95 99 88 98 115 148 165 159 160 181 188 212 221 195 191 182 195 201 208 244 295 286 263 268 267 255 250 245 241 255 279 293 331 319 319 319 313 320 312 311
299 321 317 201 158 139 128 103 112 107 107 112 146 172 190 180 200 150 185 201 201 209 193 196 228 317 285 286 288 285 266 247 248 256 266 267 320 319 323 319 316 312 321 313 309